Powrót do katalogu

USA 75

AktywnyMilitariaGEO
NORAD 21805·PAYLOAD·🇺🇸 United States

Wystrzelony Nov 24, 1991 z Cape Canaveral Space Force Station

Loading…

TLE

ŚwieżeSource: Space-Track

Epoka: Sep 13, 2026, 21:27 UTC

1 21805U 91080B   26256.89419894 -.00000074  00000-0  00000-0 0  9999
2 21805  13.9549 344.8679 0003385 112.7084 237.3857  0.99188357 26588

Śledź USA 75 w czasie rzeczywistym z AllMySat

Download on the App Store